Location: ?????????
(53.2086°N, 54.0693°E)
Time: 06:39:09
(UTC+00:00)

YAOGAN 1 - Pass Details

Date: 08 December 2019
Orbit: 619 x 621 km, 98.0° (Epoch: 19 January)

Event Time Altitude Azimuth Distance (km) Brightness Sun altitude
Rises 13:46:31 0° 136° (SE) 2,892 5.8 -13.9°
Reaches altitude 10° 13:48:51 10° 127° (SE) 1,990 4.8 -14.2°
Maximum altitude 13:52:42 33° 64° (ENE) 1,065 3.2 -14.7°
Drops below altitude 10° 13:56:35 10° 1° (N) 2,003 5.0 -15.3°
Sets 13:58:56 0° 352° (N) 2,914 5.9 -15.6°
